| time (UTC) | temp F | wind direction | speed MPH | gust MPH | rain 1hr in | rain 24hr in | rain mn in | humidity % | barometer mb |
| 20260507064837 | 63 | 128 | 1.0 | 6.0 | 0.00 | 0.00 | 0.00 | 76 | 1012.0 |
| 20260507064334 | 63 | 115 | 3.0 | 4.0 | 0.00 | 0.00 | 0.00 | 75 | 1011.9 |
| 20260507063830 | 63 | 135 | 2.0 | 4.0 | 0.00 | 0.00 | 0.00 | 76 | 1011.9 |
| 20260507063327 | 62 | 175 | 0.0 | 7.0 | 0.00 | 0.00 | 0.00 | 77 | 1011.8 |
| 20260507062843 | 62 | 138 | 4.0 | 7.0 | 0.00 | 0.00 | 0.00 | 76 | 1011.9 |
| 20260507062336 | 63 | 203 | 2.0 | 3.0 | 0.00 | 0.00 | 0.00 | 75 | 1011.8 |
| 20260507061838 | 63 | 174 | 1.0 | 2.0 | 0.00 | 0.00 | 0.00 | 75 | 1011.8 |
| 20260507061330 | 63 | 81 | 0.0 | 0.0 | 0.00 | 0.00 | 0.00 | 77 | 1011.8 |
| 20260507060828 | 62 | 69 | 0.0 | 0.0 | 0.00 | 0.00 | 0.00 | 78 | 1011.8 |
| 20260507060328 | 61 | 34 | 0.0 | 2.0 | 0.00 | 0.00 | 0.00 | 77 | 1011.9 |
| 20260507055836 | 61 | 34 | 0.0 | 5.0 | 0.00 | 0.00 | 0.00 | 79 | 1011.8 |
| 20260507055331 | 61 | 37 | 3.0 | 5.0 | 0.00 | 0.00 | 0.00 | 80 | 1011.8 |
| 20260507054845 | 60 | 57 | 2.0 | 3.0 | 0.00 | 0.00 | 0.00 | 81 | 1011.7 |
| 20260507054336 | 59 | 65 | 2.0 | 3.0 | 0.00 | 0.00 | 0.00 | 82 | 1011.6 |
| 20260507053833 | 59 | 327 | 1.0 | 2.0 | 0.00 | 0.00 | 0.00 | 82 | 1011.5 |
| 20260507053328 | 58 | 26 | 1.0 | 3.0 | 0.00 | 0.00 | 0.00 | 84 | 1011.6 |
| 20260507052841 | 57 | 332 | 2.0 | 3.0 | 0.00 | 0.00 | 0.00 | 84 | 1011.4 |
| 20260507052329 | 57 | 328 | 2.0 | 4.0 | 0.00 | 0.00 | 0.00 | 84 | 1011.5 |
| 20260507051826 | 56 | 325 | 3.0 | 4.0 | 0.00 | 0.00 | 0.00 | 85 | 1011.3 |
| 20260507051344 | 56 | 341 | 3.0 | 4.0 | 0.00 | 0.00 | 0.00 | 86 | 1011.3 |
| 20260507050841 | 55 | 324 | 2.0 | 5.0 | 0.00 | 0.00 | 0.00 | 87 | 1011.2 |
| 20260507050342 | 55 | 16 | 3.0 | 5.0 | 0.00 | 0.00 | 0.00 | 88 | 1011.3 |
| 20260507045837 | 54 | 312 | 4.0 | 5.0 | 0.00 | 0.24 | 0.00 | 88 | 1011.2 |
| 20260507045337 | 54 | 325 | 3.0 | 6.0 | 0.00 | 0.24 | 0.00 | 88 | 1011.2 |
| 20260507044834 | 54 | 342 | 3.0 | 6.0 | 0.00 | 0.24 | 0.00 | 88 | 1011.0 |
| 20260507044328 | 54 | 327 | 4.0 | 6.0 | 0.00 | 0.24 | 0.00 | 87 | 1011.1 |
| 20260507043828 | 55 | 313 | 4.0 | 8.0 | 0.00 | 0.24 | 0.00 | 86 | 1011.0 |
| 20260507043343 | 55 | 322 | 4.0 | 8.0 | 0.00 | 0.24 | 0.00 | 86 | 1011.0 |
| 20260507042840 | 54 | 330 | 4.0 | 8.0 | 0.00 | 0.24 | 0.00 | 87 | 1011.0 |
| 20260507042340 | 54 | 338 | 2.0 | 6.0 | 0.00 | 0.24 | 0.00 | 88 | 1011.1 |
| 20260507041833 | 54 | 360 | 3.0 | 6.0 | 0.00 | 0.24 | 0.00 | 88 | 1011.1 |
| 20260507041330 | 54 | 320 | 3.0 | 5.0 | 0.00 | 0.24 | 0.00 | 88 | 1011.1 |
| 20260507040843 | 54 | 331 | 3.0 | 5.0 | 0.00 | 0.24 | 0.00 | 88 | 1010.9 |
| 20260507040344 | 54 | 323 | 3.0 | 5.0 | 0.00 | 0.24 | 0.00 | 87 | 1010.9 |
| 20260507035838 | 55 | 329 | 3.0 | 5.0 | 0.00 | 0.24 | 0.00 | 86 | 1010.9 |
| 20260507035332 | 54 | 329 | 3.0 | 5.0 | 0.00 | 0.24 | 0.00 | 87 | 1010.8 |
| 20260507034830 | 54 | 346 | 3.0 | 6.0 | 0.00 | 0.24 | 0.00 | 88 | 1010.8 |
| 20260507034324 | 54 | 355 | 3.0 | 6.0 | 0.00 | 0.24 | 0.00 | 87 | 1010.8 |
| 20260507033844 | 55 | 322 | 4.0 | 9.0 | 0.00 | 0.24 | 0.00 | 86 | 1010.8 |
| 20260507033342 | 55 | 321 | 5.0 | 9.0 | 0.00 | 0.24 | 0.00 | 86 | 1010.7 |
| 20260507032837 | 55 | 329 | 2.0 | 10.0 | 0.00 | 0.24 | 0.00 | 86 | 1010.7 |
| 20260507032335 | 55 | 327 | 3.0 | 8.0 | 0.00 | 0.24 | 0.00 | 86 | 1010.7 |
| 20260507031828 | 55 | 326 | 4.0 | 8.0 | 0.00 | 0.24 | 0.00 | 86 | 1010.6 |
| 20260507031325 | 55 | 10 | 4.0 | 9.0 | 0.00 | 0.24 | 0.00 | 87 | 1010.7 |
| 20260507030842 | 55 | 12 | 2.0 | 5.0 | 0.00 | 0.24 | 0.00 | 88 | 1010.6 |
| 20260507030337 | 55 | 9 | 3.0 | 8.0 | 0.00 | 0.24 | 0.00 | 88 | 1010.6 |
| 20260507025833 | 54 | 342 | 3.0 | 9.0 | 0.00 | 0.24 | 0.00 | 89 | 1010.5 |
| 20260507025326 | 54 | 327 | 2.0 | 9.0 | 0.00 | 0.24 | 0.00 | 90 | 1010.6 |
| 20260507024825 | 54 | 350 | 3.0 | 5.0 | 0.00 | 0.24 | 0.00 | 91 | 1010.6 |
| 20260507024342 | 54 | 348 | 3.0 | 5.0 | 0.00 | 0.24 | 0.00 | 91 | 1010.6 |
| 20260507023836 | 54 | 319 | 2.0 | 5.0 | 0.00 | 0.24 | 0.00 | 91 | 1010.6 |
| 20260507023333 | 54 | 325 | 3.0 | 5.0 | 0.00 | 0.24 | 0.00 | 91 | 1010.7 |
| 20260507022827 | 54 | 335 | 2.0 | 4.0 | 0.00 | 0.24 | 0.00 | 91 | 1010.6 |
| 20260507022325 | 54 | 26 | 2.0 | 5.0 | 0.00 | 0.24 | 0.00 | 91 | 1010.6 |
| 20260507021824 | 54 | 341 | 2.0 | 5.0 | 0.00 | 0.24 | 0.00 | 91 | 1010.5 |
| 20260507021340 | 54 | 322 | 4.0 | 5.0 | 0.00 | 0.24 | 0.00 | 91 | 1010.5 |
| 20260507020836 | 54 | 321 | 3.0 | 5.0 | 0.00 | 0.24 | 0.00 | 91 | 1010.5 |
| 20260507020331 | 55 | 340 | 2.0 | 4.0 | 0.00 | 0.24 | 0.00 | 91 | 1010.5 |
| 20260507015843 | 55 | 324 | 3.0 | 4.0 | 0.00 | 0.24 | 0.00 | 91 | 1010.5 |
| 20260507015343 | 55 | 344 | 1.0 | 4.0 | 0.00 | 0.24 | 0.00 | 90 | 1010.4 |
| 20260507014839 | 55 | 328 | 2.0 | 4.0 | 0.00 | 0.24 | 0.00 | 90 | 1010.3 |
| 20260507014341 | 55 | 332 | 2.0 | 4.0 | 0.00 | 0.24 | 0.00 | 90 | 1010.3 |
| 20260507013836 | 55 | 340 | 2.0 | 4.0 | 0.00 | 0.24 | 0.00 | 89 | 1010.3 |
| 20260507013334 | 55 | 360 | 3.0 | 4.0 | 0.00 | 0.24 | 0.00 | 89 | 1010.2 |
| 20260507012831 | 56 | 342 | 2.0 | 5.0 | 0.00 | 0.24 | 0.00 | 89 | 1010.2 |
| 20260507012343 | 56 | 336 | 4.0 | 6.0 | 0.00 | 0.24 | 0.00 | 89 | 1010.3 |
| 20260507011841 | 56 | 350 | 4.0 | 6.0 | 0.00 | 0.24 | 0.00 | 90 | 1010.3 |
| 20260507011336 | 55 | 317 | 4.0 | 8.0 | 0.00 | 0.24 | 0.00 | 90 | 1010.2 |
| 20260507010834 | 55 | 331 | 2.0 | 5.0 | 0.00 | 0.24 | 0.00 | 90 | 1010.3 |
| 20260507010332 | 55 | 321 | 2.0 | 5.0 | 0.00 | 0.24 | 0.00 | 90 | 1010.4 |
| 20260507005844 | 56 | 328 | 4.0 | 5.0 | 0.00 | 0.35 | 0.00 | 90 | 1010.4 |
| 20260507005342 | 56 | 344 | 3.0 | 4.0 | 0.00 | 0.35 | 0.00 | 90 | 1010.4 |
| 20260507004837 | 56 | 338 | 2.0 | 4.0 | 0.00 | 0.35 | 0.00 | 89 | 1010.4 |
| 20260507004336 | 56 | 333 | 2.0 | 4.0 | 0.00 | 0.35 | 0.00 | 89 | 1010.5 |
| 20260507003837 | 56 | 322 | 2.0 | 4.0 | 0.00 | 0.35 | 0.00 | 89 | 1010.5 |
| 20260507003332 | 56 | 360 | 2.0 | 8.0 | 0.00 | 0.35 | 0.00 | 88 | 1010.4 |
| 20260507002830 | 56 | 12 | 4.0 | 9.0 | 0.00 | 0.35 | 0.00 | 88 | 1010.4 |
| 20260507002327 | 56 | 32 | 4.0 | 9.0 | 0.00 | 0.35 | 0.00 | 89 | 1010.4 |
| 20260507001843 | 56 | 349 | 3.0 | 6.0 | 0.00 | 0.35 | 0.00 | 90 | 1010.4 |
| 20260507001343 | 56 | 332 | 3.0 | 5.0 | 0.00 | 0.35 | 0.00 | 91 | 1010.3 |
| 20260507000836 | 55 | 333 | 2.0 | 5.0 | 0.00 | 0.35 | 0.00 | 91 | 1010.3 |
| 20260507000332 | 55 | 17 | 2.0 | 5.0 | 0.00 | 0.35 | 0.00 | 91 | 1010.2 |
| 20260506235831 | 55 | 331 | 3.0 | 5.0 | 0.00 | 0.59 | 0.00 | 91 | 1010.3 |
| 20260506235327 | 55 | 338 | 1.0 | 4.0 | 0.00 | 0.59 | 0.00 | 91 | 1010.3 |
| 20260506234843 | 55 | 9 | 1.0 | 4.0 | 0.00 | 0.59 | 0.00 | 92 | 1010.3 |
| 20260506234340 | 55 | 329 | 2.0 | 4.0 | 0.00 | 0.59 | 0.00 | 92 | 1010.3 |
| 20260506233838 | 55 | 325 | 2.0 | 3.0 | 0.00 | 0.59 | 0.00 | 92 | 1010.2 |
| 20260506233335 | 55 | 11 | 1.0 | 5.0 | 0.00 | 0.59 | 0.00 | 92 | 1010.3 |
| 20260506232828 | 55 | 325 | 3.0 | 5.0 | 0.00 | 0.59 | 0.00 | 92 | 1010.4 |
| 20260506232326 | 55 | 312 | 3.0 | 5.0 | 0.00 | 0.59 | 0.00 | 91 | 1010.4 |
| 20260506231843 | 55 | 329 | 3.0 | 4.0 | 0.00 | 0.59 | 0.00 | 91 | 1010.3 |
| 20260506231343 | 55 | 325 | 3.0 | 4.0 | 0.00 | 0.59 | 0.00 | 90 | 1010.3 |
| 20260506230841 | 55 | 355 | 2.0 | 6.0 | 0.00 | 0.59 | 0.00 | 90 | 1010.3 |
| 20260506230335 | 56 | 319 | 5.0 | 6.0 | 0.00 | 0.59 | 0.00 | 90 | 1010.2 |
| 20260506225830 | 56 | 327 | 4.0 | 5.0 | 0.00 | 0.59 | 0.00 | 90 | 1010.2 |
| 20260506225325 | 56 | 319 | 3.0 | 4.0 | 0.00 | 0.59 | 0.00 | 90 | 1010.2 |
| 20260506224841 | 56 | 323 | 3.0 | 4.0 | 0.00 | 0.59 | 0.00 | 89 | 1010.2 |
| 20260506224339 | 57 | 339 | 1.0 | 4.0 | 0.00 | 0.59 | 0.00 | 89 | 1010.2 |
| 20260506223835 | 57 | 329 | 2.0 | 4.0 | 0.00 | 0.59 | 0.00 | 90 | 1010.2 |
| 20260506223336 | 57 | 316 | 2.0 | 4.0 | 0.00 | 0.59 | 0.00 | 89 | 1010.1 |
| 20260506222828 | 57 | 5 | 1.0 | 4.0 | 0.00 | 0.59 | 0.00 | 88 | 1010.2 |
| 20260506222326 | 57 | 341 | 2.0 | 5.0 | 0.00 | 0.59 | 0.00 | 88 | 1010.2 |
| 20260506221844 | 57 | 19 | 3.0 | 6.0 | 0.00 | 0.59 | 0.00 | 89 | 1010.2 |
| 20260506221338 | 57 | 26 | 3.0 | 8.0 | 0.00 | 0.59 | 0.00 | 89 | 1010.3 |
| 20260506220835 | 57 | 5 | 3.0 | 8.0 | 0.00 | 0.59 | 0.00 | 89 | 1010.1 |
| 20260506220328 | 57 | 5 | 2.0 | 4.0 | 0.00 | 0.59 | 0.00 | 90 | 1010.2 |
| 20260506215836 | 57 | 348 | 3.0 | 4.0 | 0.00 | 0.59 | 0.12 | 90 | 1010.1 |
| 20260506215335 | 57 | 330 | 3.0 | 4.0 | 0.00 | 0.59 | 0.12 | 89 | 1010.1 |
| 20260506214830 | 57 | 328 | 3.0 | 4.0 | 0.00 | 0.59 | 0.12 | 90 | 1010.0 |
| 20260506214330 | 57 | 17 | 1.0 | 4.0 | 0.00 | 0.59 | 0.12 | 90 | 1010.0 |
| 20260506213844 | 56 | 18 | 3.0 | 4.0 | 0.00 | 0.59 | 0.12 | 90 | 1010.0 |
| 20260506213343 | 56 | 324 | 1.0 | 5.0 | 0.00 | 0.59 | 0.12 | 90 | 1010.0 |
| 20260506212835 | 56 | 340 | 3.0 | 5.0 | 0.00 | 0.59 | 0.12 | 89 | 1009.9 |
| 20260506212327 | 56 | 311 | 4.0 | 5.0 | 0.00 | 0.59 | 0.12 | 88 | 1009.9 |
| 20260506211824 | 56 | 312 | 3.0 | 4.0 | 0.00 | 0.59 | 0.12 | 87 | 1009.9 |
| 20260506211342 | 56 | 323 | 3.0 | 4.0 | 0.00 | 0.59 | 0.12 | 87 | 1009.9 |
| 20260506210839 | 57 | 355 | 2.0 | 5.0 | 0.00 | 0.59 | 0.12 | 87 | 1009.9 |
| 20260506210337 | 57 | 326 | 4.0 | 5.0 | 0.00 | 0.59 | 0.12 | 86 | 1009.9 |
| 20260506205830 | 57 | 324 | 4.0 | 5.0 | 0.00 | 0.59 | 0.12 | 85 | 1009.8 |
| 20260506205330 | 58 | 339 | 1.0 | 6.0 | 0.00 | 0.59 | 0.12 | 86 | 1009.9 |
| 20260506204842 | 57 | 360 | 2.0 | 6.0 | 0.00 | 0.59 | 0.12 | 86 | 1009.8 |
| 20260506204341 | 57 | 333 | 3.0 | 5.0 | 0.00 | 0.59 | 0.12 | 85 | 1009.7 |
| 20260506203840 | 58 | 342 | 2.0 | 4.0 | 0.00 | 0.59 | 0.12 | 85 | 1009.6 |
| 20260506203335 | 58 | 13 | 3.0 | 5.0 | 0.00 | 0.59 | 0.12 | 84 | 1009.5 |
| 20260506202831 | 58 | 325 | 3.0 | 5.0 | 0.00 | 0.59 | 0.12 | 83 | 1009.5 |
| 20260506202344 | 59 | 340 | 3.0 | 4.0 | 0.00 | 0.59 | 0.12 | 82 | 1009.4 |
| 20260506201843 | 60 | 321 | 3.0 | 4.0 | 0.00 | 0.59 | 0.12 | 80 | 1009.2 |
| 20260506201338 | 61 | 124 | 2.0 | 5.0 | 0.00 | 0.59 | 0.12 | 79 | 1009.2 |
| 20260506200828 | 60 | 308 | 3.0 | 6.0 | 0.00 | 0.59 | 0.12 | 81 | 1009.2 |
| 20260506200328 | 60 | 323 | 3.0 | 9.0 | 0.00 | 0.59 | 0.12 | 82 | 1009.1 |
| 20260506195841 | 60 | 331 | 5.0 | 11.0 | 0.00 | 0.59 | 0.12 | 82 | 1009.1 |
| 20260506195341 | 59 | 333 | 6.0 | 11.0 | 0.00 | 0.59 | 0.12 | 82 | 1009.0 |
| 20260506194837 | 59 | 348 | 4.0 | 9.0 | 0.00 | 0.59 | 0.12 | 81 | 1008.8 |
| 20260506194326 | 59 | 360 | 4.0 | 8.0 | 0.00 | 0.59 | 0.12 | 81 | 1008.5 |
| 20260506193844 | 58 | 334 | 3.0 | 5.0 | 0.00 | 0.59 | 0.12 | 81 | 1008.5 |
| 20260506193333 | 59 | 321 | 3.0 | 5.0 | 0.00 | 0.59 | 0.12 | 81 | 1008.3 |
| 20260506192843 | 59 | 360 | 1.0 | 3.0 | 0.00 | 0.59 | 0.12 | 81 | 1008.2 |
| 20260506192335 | 59 | 5 | 2.0 | 5.0 | 0.00 | 0.59 | 0.12 | 80 | 1008.2 |
| 20260506191833 | 59 | 327 | 2.0 | 8.0 | 0.00 | 0.59 | 0.12 | 81 | 1008.0 |
| 20260506191331 | 59 | 327 | 5.0 | 9.0 | 0.00 | 0.59 | 0.12 | 80 | 1008.0 |
| 20260506190825 | 61 | 318 | 6.0 | 8.0 | 0.00 | 0.59 | 0.12 | 76 | 1007.9 |
| 20260506190343 | 62 | 316 | 0.0 | 4.0 | 0.00 | 0.59 | 0.12 | 74 | 1007.9 |
| 20260506185837 | 62 | 317 | 2.0 | 4.0 | 0.00 | 0.59 | 0.12 | 75 | 1007.8 |
| 20260506185333 | 62 | 146 | 2.0 | 4.0 | 0.00 | 0.59 | 0.12 | 74 | 1007.8 |
| 20260506184828 | 62 | 284 | 0.0 | 2.0 | 0.00 | 0.59 | 0.12 | 74 | 1007.8 |
| 20260506184341 | 63 | 291 | 0.0 | 3.0 | 0.00 | 0.59 | 0.12 | 74 | 1007.7 |
| 20260506183839 | 63 | 270 | 1.0 | 3.0 | 0.00 | 0.59 | 0.12 | 74 | 1007.6 |
| 20260506183335 | 64 | 303 | 2.0 | 9.0 | 0.00 | 0.59 | 0.12 | 74 | 1007.6 |
| 20260506182830 | 64 | 209 | 4.0 | 9.0 | 0.00 | 0.59 | 0.12 | 73 | 1007.5 |
| 20260506182326 | 64 | 154 | 3.0 | 10.0 | 0.00 | 0.59 | 0.12 | 74 | 1007.5 |
| 20260506181844 | 65 | 162 | 4.0 | 10.0 | 0.00 | 0.59 | 0.12 | 73 | 1007.5 |
| 20260506181343 | 65 | 143 | 3.0 | 13.0 | 0.00 | 0.59 | 0.12 | 66 | 1007.4 |
| 20260506180839 | 65 | 210 | 8.0 | 13.0 | 0.00 | 0.59 | 0.12 | 65 | 1007.3 |
| 20260506180336 | 65 | 231 | 6.0 | 15.0 | 0.00 | 0.59 | 0.12 | 65 | 1007.3 |
| 20260506175832 | 65 | 218 | 5.0 | 9.0 | 0.00 | 0.59 | 0.12 | 68 | 1007.3 |
| 20260506175326 | 66 | 134 | 3.0 | 12.0 | 0.00 | 0.59 | 0.12 | 68 | 1007.2 |
| 20260506174825 | 66 | 215 | 5.0 | 14.0 | 0.00 | 0.59 | 0.12 | 65 | 1007.1 |
| 20260506174326 | 66 | 218 | 6.0 | 14.0 | 0.00 | 0.59 | 0.12 | 65 | 1007.1 |
| 20260506173841 | 66 | 194 | 2.0 | 14.0 | 0.00 | 0.59 | 0.12 | 66 | 1006.9 |
| 20260506173342 | 66 | 253 | 7.0 | 13.0 | 0.00 | 0.59 | 0.12 | 65 | 1007.0 |
| 20260506172831 | 66 | 223 | 7.0 | 14.0 | 0.00 | 0.59 | 0.12 | 65 | 1006.9 |
| 20260506172329 | 66 | 216 | 6.0 | 16.0 | 0.00 | 0.59 | 0.12 | 65 | 1006.9 |
| 20260506171829 | 66 | 208 | 9.0 | 16.0 | 0.00 | 0.59 | 0.12 | 65 | 1007.0 |
| 20260506171342 | 67 | 188 | 4.0 | 18.0 | 0.00 | 0.59 | 0.12 | 65 | 1007.0 |
| 20260506170838 | 67 | 222 | 11.0 | 17.0 | 0.00 | 0.59 | 0.12 | 65 | 1006.8 |
| 20260506170335 | 67 | 302 | 7.0 | 14.0 | 0.00 | 0.59 | 0.12 | 65 | 1006.9 |
| 20260506165833 | 67 | 231 | 10.0 | 18.0 | 0.00 | 0.59 | 0.12 | 64 | 1006.8 |
| 20260506165333 | 67 | 220 | 11.0 | 18.0 | 0.00 | 0.59 | 0.12 | 64 | 1006.8 |
| 20260506164827 | 67 | 149 | 8.0 | 14.0 | 0.00 | 0.59 | 0.12 | 65 | 1006.7 |
| 20260506164327 | 67 | 231 | 8.0 | 15.0 | 0.00 | 0.59 | 0.12 | 66 | 1006.7 |
| 20260506163841 | 68 | 183 | 7.0 | 19.0 | 0.00 | 0.59 | 0.12 | 65 | 1006.7 |
| 20260506163338 | 68 | 237 | 10.0 | 19.0 | 0.00 | 0.59 | 0.12 | 64 | 1006.7 |
| 20260506162835 | 68 | 219 | 10.0 | 16.0 | 0.00 | 0.59 | 0.12 | 65 | 1006.6 |
| 20260506162330 | 68 | 240 | 9.0 | 18.0 | 0.00 | 0.59 | 0.12 | 65 | 1006.6 |
| 20260506161829 | 68 | 222 | 6.0 | 20.0 | 0.00 | 0.59 | 0.12 | 66 | 1006.5 |
| 20260506161325 | 68 | 196 | 12.0 | 20.0 | 0.00 | 0.59 | 0.12 | 66 | 1006.5 |
| 20260506160839 | 68 | 218 | 8.0 | 20.0 | 0.00 | 0.59 | 0.12 | 68 | 1006.5 |
| 20260506160338 | 68 | 222 | 12.0 | 25.0 | 0.00 | 0.59 | 0.12 | 67 | 1006.5 |
| 20260506155830 | 68 | 211 | 9.0 | 19.0 | 0.00 | 0.59 | 0.12 | 67 | 1006.6 |
| 20260506155326 | 68 | 219 | 7.0 | 23.0 | 0.00 | 0.59 | 0.12 | 67 | 1006.5 |
| 20260506154839 | 68 | 221 | 8.0 | 22.0 | 0.00 | 0.59 | 0.12 | 68 | 1006.5 |
| 20260506154338 | 68 | 211 | 10.0 | 20.0 | 0.00 | 0.59 | 0.12 | 68 | 1006.5 |
| 20260506153834 | 68 | 259 | 8.0 | 15.0 | 0.00 | 0.59 | 0.12 | 69 | 1006.5 |
| 20260506153329 | 68 | 250 | 5.0 | 20.0 | 0.00 | 0.59 | 0.12 | 69 | 1006.5 |
| 20260506152842 | 68 | 221 | 5.0 | 20.0 | 0.00 | 0.59 | 0.12 | 70 | 1006.4 |
| 20260506152336 | 69 | 184 | 9.0 | 17.0 | 0.00 | 0.59 | 0.12 | 67 | 1006.5 |
| 20260506151836 | 69 | 249 | 5.0 | 15.0 | 0.00 | 0.59 | 0.12 | 70 | 1006.5 |
| 20260506151334 | 69 | 213 | 8.0 | 15.0 | 0.00 | 0.59 | 0.12 | 68 | 1006.4 |
| 20260506150826 | 69 | 198 | 4.0 | 13.0 | 0.00 | 0.59 | 0.12 | 70 | 1006.6 |
| 20260506150326 | 68 | 196 | 8.0 | 17.0 | 0.00 | 0.59 | 0.12 | 71 | 1006.6 |
| 20260506145839 | 68 | 224 | 8.0 | 17.0 | 0.00 | 0.59 | 0.12 | 70 | 1006.5 |
| 20260506145337 | 68 | 207 | 6.0 | 14.0 | 0.00 | 0.59 | 0.12 | 71 | 1006.6 |
| 20260506144836 | 67 | 188 | 8.0 | 18.0 | 0.00 | 0.59 | 0.12 | 73 | 1006.5 |
| 20260506144330 | 66 | 195 | 9.0 | 21.0 | 0.00 | 0.59 | 0.12 | 73 | 1006.6 |
| 20260506143844 | 67 | 153 | 12.0 | 22.0 | 0.00 | 0.59 | 0.12 | 74 | 1006.7 |
| 20260506143341 | 67 | 182 | 11.0 | 21.0 | 0.00 | 0.59 | 0.12 | 73 | 1006.6 |
| 20260506142838 | 67 | 171 | 9.0 | 24.0 | 0.00 | 0.59 | 0.12 | 76 | 1006.5 |
| 20260506142335 | 66 | 205 | 8.0 | 24.0 | 0.00 | 0.59 | 0.12 | 76 | 1006.6 |
| 20260506141831 | 67 | 144 | 9.0 | 19.0 | 0.00 | 0.59 | 0.12 | 76 | 1006.7 |
| 20260506141328 | 67 | 169 | 10.0 | 18.0 | 0.00 | 0.59 | 0.12 | 74 | 1006.7 |
| 20260506140843 | 67 | 202 | 10.0 | 22.0 | 0.00 | 0.59 | 0.12 | 74 | 1006.7 |
| 20260506140325 | 67 | 211 | 12.0 | 23.0 | 0.00 | 0.59 | 0.12 | 74 | 1006.7 |
| 20260506135842 | 68 | 155 | 11.0 | 21.0 | 0.00 | 0.59 | 0.12 | 72 | 1006.6 |
| 20260506135338 | 68 | 243 | 8.0 | 17.0 | 0.00 | 0.59 | 0.12 | 71 | 1006.7 |
| 20260506134835 | 67 | 233 | 9.0 | 22.0 | 0.00 | 0.59 | 0.12 | 73 | 1006.7 |
| 20260506134331 | 68 | 209 | 11.0 | 17.0 | 0.00 | 0.59 | 0.12 | 69 | 1006.7 |
| 20260506133831 | 69 | 249 | 9.0 | 22.0 | 0.00 | 0.59 | 0.12 | 66 | 1006.7 |
| 20260506133327 | 68 | 202 | 12.0 | 22.0 | 0.00 | 0.59 | 0.12 | 65 | 1006.7 |
| 20260506132840 | 68 | 239 | 17.0 | 28.0 | 0.00 | 0.59 | 0.12 | 64 | 1006.7 |
| 20260506132339 | 68 | 205 | 13.0 | 28.0 | 0.00 | 0.59 | 0.12 | 66 | 1006.7 |
| 20260506131832 | 68 | 222 | 13.0 | 20.0 | 0.00 | 0.59 | 0.12 | 65 | 1006.8 |
| 20260506131334 | 68 | 224 | 12.0 | 24.0 | 0.00 | 0.59 | 0.12 | 64 | 1006.9 |
| 20260506130830 | 68 | 229 | 14.0 | 25.0 | 0.00 | 0.59 | 0.12 | 66 | 1006.7 |
| 20260506130325 | 68 | 259 | 15.0 | 25.0 | 0.00 | 0.59 | 0.12 | 66 | 1006.8 |
| 20260506125840 | 68 | 237 | 14.0 | 25.0 | 0.00 | 0.59 | 0.12 | 67 | 1006.8 |
| 20260506125333 | 68 | 219 | 14.0 | 25.0 | 0.00 | 0.59 | 0.12 | 66 | 1006.7 |
| 20260506124829 | 68 | 203 | 13.0 | 21.0 | 0.00 | 0.59 | 0.12 | 67 | 1006.7 |
| 20260506124326 | 68 | 233 | 10.0 | 24.0 | 0.00 | 0.59 | 0.12 | 68 | 1006.8 |
| 20260506123843 | 68 | 245 | 11.0 | 28.0 | 0.00 | 0.59 | 0.12 | 68 | 1006.9 |
| 20260506123341 | 67 | 213 | 14.0 | 27.0 | 0.00 | 0.59 | 0.12 | 68 | 1006.9 |
| 20260506122838 | 67 | 218 | 18.0 | 26.0 | 0.00 | 0.59 | 0.12 | 66 | 1006.9 |
| 20260506122338 | 67 | 190 | 15.0 | 25.0 | 0.00 | 0.59 | 0.12 | 67 | 1006.9 |
| 20260506121834 | 67 | 182 | 12.0 | 25.0 | 0.00 | 0.59 | 0.12 | 70 | 1006.8 |
| 20260506121329 | 67 | 214 | 16.0 | 25.0 | 0.00 | 0.59 | 0.12 | 69 | 1006.8 |
| 20260506120828 | 67 | 180 | 9.0 | 21.0 | 0.00 | 0.59 | 0.12 | 72 | 1006.7 |
| 20260506120342 | 67 | 220 | 12.0 | 21.0 | 0.00 | 0.59 | 0.12 | 73 | 1006.8 |
| 20260506115334 | 66 | 156 | 13.0 | 28.0 | 0.00 | 0.59 | 0.12 | 76 | 1006.9 |
| 20260506114835 | 66 | 154 | 11.0 | 24.0 | 0.00 | 0.59 | 0.12 | 75 | 1006.9 |
| 20260506114328 | 66 | 146 | 13.0 | 22.0 | 0.00 | 0.59 | 0.12 | 75 | 1006.9 |
| 20260506113844 | 67 | 196 | 10.0 | 20.0 | 0.00 | 0.59 | 0.12 | 74 | 1006.7 |
| 20260506113342 | 66 | 188 | 12.0 | 25.0 | 0.00 | 0.59 | 0.12 | 75 | 1006.8 |
| 20260506112834 | 65 | 44 | 13.0 | 25.0 | 0.00 | 0.59 | 0.12 | 76 | 1006.9 |
| 20260506111828 | 65 | 198 | 15.0 | 25.0 | 0.00 | 0.59 | 0.12 | 74 | 1007.2 |
| 20260506111343 | 65 | 217 | 14.0 | 25.0 | 0.00 | 0.59 | 0.12 | 74 | 1007.3 |
| 20260506110843 | 65 | 202 | 13.0 | 31.0 | 0.00 | 0.59 | 0.12 | 75 | 1007.4 |
| 20260506110338 | 65 | 214 | 14.0 | 31.0 | 0.00 | 0.59 | 0.12 | 74 | 1007.2 |
| 20260506105832 | 65 | 213 | 13.0 | 22.0 | 0.00 | 0.59 | 0.12 | 78 | 1007.4 |
| 20260506105329 | 65 | 188 | 14.0 | 21.0 | 0.00 | 0.59 | 0.12 | 79 | 1007.4 |
| 20260506104824 | 65 | 211 | 10.0 | 21.0 | 0.00 | 0.59 | 0.12 | 79 | 1007.4 |
| 20260506104341 | 65 | 201 | 12.0 | 23.0 | 0.00 | 0.59 | 0.12 | 78 | 1007.5 |
| 20260506103837 | 64 | 254 | 11.0 | 23.0 | 0.00 | 0.59 | 0.12 | 79 | 1007.4 |
| 20260506103333 | 65 | 171 | 11.0 | 21.0 | 0.00 | 0.59 | 0.12 | 79 | 1007.5 |
| 20260506102826 | 64 | 229 | 10.0 | 21.0 | 0.00 | 0.59 | 0.12 | 79 | 1007.6 |
| 20260506102341 | 64 | 193 | 12.0 | 19.0 | 0.00 | 0.59 | 0.12 | 78 | 1007.6 |
| 20260506101836 | 64 | 169 | 10.0 | 20.0 | 0.00 | 0.59 | 0.12 | 78 | 1007.6 |
| 20260506101330 | 64 | 204 | 12.0 | 19.0 | 0.00 | 0.59 | 0.12 | 78 | 1007.7 |
| 20260506100825 | 64 | 205 | 12.0 | 19.0 | 0.00 | 0.59 | 0.12 | 79 | 1007.7 |
| 20260506100340 | 64 | 180 | 12.0 | 20.0 | 0.00 | 0.59 | 0.12 | 78 | 1007.8 |
| 20260506095836 | 64 | 218 | 11.0 | 22.0 | 0.00 | 0.59 | 0.12 | 79 | 1007.8 |
| 20260506095336 | 64 | 198 | 10.0 | 23.0 | 0.00 | 0.59 | 0.12 | 78 | 1007.8 |
| 20260506094830 | 63 | 243 | 10.0 | 23.0 | 0.00 | 0.59 | 0.12 | 79 | 1007.8 |
| 20260506094327 | 63 | 169 | 12.0 | 18.0 | 0.00 | 0.59 | 0.12 | 78 | 1007.9 |
| 20260506093843 | 64 | 192 | 9.0 | 18.0 | 0.00 | 0.59 | 0.12 | 79 | 1007.9 |
| 20260506093343 | 64 | 179 | 9.0 | 18.0 | 0.00 | 0.59 | 0.12 | 79 | 1007.8 |
| 20260506092839 | 63 | 219 | 8.0 | 19.0 | 0.00 | 0.59 | 0.12 | 81 | 1007.8 |
| 20260506092334 | 63 | 197 | 11.0 | 18.0 | 0.00 | 0.59 | 0.12 | 79 | 1007.8 |
| 20260506091833 | 63 | 178 | 12.0 | 20.0 | 0.00 | 0.59 | 0.12 | 79 | 1007.7 |
| 20260506091326 | 64 | 204 | 7.0 | 14.0 | 0.00 | 0.59 | 0.12 | 79 | 1007.8 |
| 20260506090844 | 64 | 184 | 10.0 | 15.0 | 0.00 | 0.59 | 0.12 | 77 | 1007.7 |
| 20260506090343 | 64 | 212 | 8.0 | 12.0 | 0.00 | 0.59 | 0.12 | 78 | 1007.7 |
| 20260506085838 | 63 | 160 | 9.0 | 13.0 | 0.00 | 0.67 | 0.12 | 78 | 1007.7 |
| 20260506085336 | 63 | 161 | 7.0 | 12.0 | 0.00 | 0.67 | 0.12 | 77 | 1007.9 |
| 20260506084830 | 63 | 182 | 8.0 | 12.0 | 0.00 | 0.67 | 0.12 | 78 | 1007.9 |
| 20260506084342 | 63 | 193 | 5.0 | 10.0 | 0.00 | 0.67 | 0.12 | 79 | 1007.9 |
| 20260506083840 | 63 | 156 | 6.0 | 12.0 | 0.00 | 0.67 | 0.12 | 79 | 1007.9 |
| 20260506083335 | 63 | 190 | 8.0 | 12.0 | 0.00 | 0.67 | 0.12 | 78 | 1007.9 |
| 20260506082835 | 63 | 178 | 8.0 | 12.0 | 0.00 | 0.67 | 0.12 | 79 | 1007.9 |
| 20260506082330 | 63 | 187 | 6.0 | 10.0 | 0.00 | 0.67 | 0.12 | 77 | 1007.8 |
| 20260506081829 | 63 | 209 | 6.0 | 10.0 | 0.00 | 0.67 | 0.12 | 78 | 1007.9 |
| 20260506081329 | 63 | 179 | 7.0 | 10.0 | 0.00 | 0.67 | 0.12 | 79 | 1007.8 |
| 20260506080844 | 63 | 156 | 7.0 | 12.0 | 0.00 | 0.67 | 0.12 | 79 | 1007.9 |
| 20260506080325 | 63 | 173 | 6.0 | 12.0 | 0.00 | 0.67 | 0.12 | 79 | 1007.9 |
| 20260506073339 | 63 | 180 | 4.0 | 10.0 | 0.00 | 0.67 | 0.12 | 79 | 1007.8 |
| 20260506072836 | 63 | 180 | 4.0 | 9.0 | 0.00 | 0.67 | 0.12 | 80 | 1007.8 |
| 20260506072332 | 62 | 36 | 4.0 | 6.0 | 0.00 | 0.67 | 0.12 | 81 | 1007.7 |
| 20260506071824 | 62 | 94 | 3.0 | 5.0 | 0.00 | 0.67 | 0.12 | 82 | 1007.6 |
| 20260506071339 | 61 | 175 | 3.0 | 5.0 | 0.00 | 0.67 | 0.12 | 82 | 1007.6 |
| 20260506070836 | 61 | 206 | 1.0 | 5.0 | 0.00 | 0.67 | 0.12 | 85 | 1007.5 |
| 20260506070335 | 61 | 196 | 3.0 | 5.0 | 0.00 | 0.67 | 0.12 | 85 | 1007.5 |